Guymon, OK

4:28 AM CDT on July 25, 2017 (GMT -0500)
Guymon Municipal

Weather History for KGUY - February, 2012

Change the Weather History Date:

Monday, February 20, 2012

  Actual Average Record
Temperature  
Mean Temperature 37 °F 39 °F  
Max Temperature 49 °F 54 °F 75 °F (2016)
Min Temperature 24 °F 25 °F 10 °F (2006)
Degree Days  
Heating Degree Days 28 26  
Month to date heating degree days 583 543  
Since 1 July heating degree days 3117 3271  
Cooling Degree Days 0 0  
Month to date cooling degree days 0 0  
Year to date cooling degree days 0 0  
Moisture  
Dew Point 27 °F    
Average Humidity 59    
Maximum Humidity 89    
Minimum Humidity 28    
Precipitation  
Precipitation T in 0.02 in 0.18 in (2013)
Month to date precipitation 0.22 0.32  
Year to date precipitation 0.24 0.72  
Snow  
Snow T in - - ()
Month to date snowfall T  
Since 1 July snowfall 9.1  
Snow Depth 0.00 in    
Sea Level Pressure  
Sea Level Pressure 29.77 in    
Wind  
Wind Speed 19 mph (West)    
Max Wind Speed 39 mph    
Max Gust Speed 51 mph    
Visibility 9 miles    
Events Snow    
T = Trace of Precipitation, MM = Missing Value Source: NWS Daily Summary

Daily Weather History Graph

Daily Weather History Graph

Search for Another Location

Airport or City:

Trip Planner

Search our weather history database for the weather conditions in past years. The results will help you decide how hot, cold, wet, or windy it might be!

Date:

Astronomy

Feb. 20, 2012 Rise Set
Actual Time 7:28 AM CST 6:31 PM CST
Civil Twilight 7:02 AM CST 6:57 PM CST
Nautical Twilight 6:32 AM CST 7:27 PM CST
Astronomical Twilight 6:02 AM CST 7:57 PM CST
Moon 6:25 AM CST (2/20) 5:38 PM CST (2/20)
Length of Visible Light 11h 54m
Length of Day
11h 02m
Waning Crescent, 1% of the Moon is Illuminated
Feb 20
Waning Crescent
Feb 21
New
Feb 29
First Quarter
Mar 8
Full
Mar 14
Last Quarter

Hourly Weather History & Observations

Time (CST) Temp. Windchill Dew Point Humidity Pressure Visibility Wind Dir Wind Speed Gust Speed Precip Events Conditions
12:01 AM 44.6 °F 36.6 °F 39.2 °F 81% 29.71 in 10.0 mi South 19.6 mph - N/A   Mostly Cloudy
12:53 AM 44.1 °F 35.4 °F 39.9 °F 85% 29.65 in 10.0 mi South 21.9 mph 31.1 mph N/A   Partly Cloudy
1:39 AM 44.6 °F 35.9 °F 39.2 °F 81% 29.67 in 10.0 mi South 23.0 mph 29.9 mph N/A   Mostly Cloudy
1:53 AM 44.1 °F 36.2 °F 39.9 °F 85% 29.62 in 10.0 mi South 18.4 mph 28.8 mph N/A   Mostly Cloudy
2:21 AM 42.8 °F 35.1 °F 39.2 °F 87% 29.67 in 10.0 mi South 16.1 mph - N/A   Scattered Clouds
2:53 AM 43.0 °F 34.5 °F 39.0 °F 86% 29.60 in 10.0 mi South 19.6 mph - N/A   Clear
3:53 AM 41.0 °F 33.9 °F 37.0 °F 86% 29.59 in 10.0 mi South 12.7 mph - N/A   Clear
4:53 AM 39.0 °F 31.0 °F 34.0 °F 82% 29.59 in 10.0 mi SSW 13.8 mph - N/A   Clear
5:53 AM 37.0 °F 28.9 °F 30.9 °F 79% 29.61 in 10.0 mi SSW 12.7 mph - N/A   Clear
6:53 AM 37.9 °F 27.3 °F 30.0 °F 73% 29.61 in 10.0 mi SW 21.9 mph - N/A   Clear
7:53 AM 37.0 °F 26.4 °F 27.0 °F 67% 29.65 in 10.0 mi SW 20.7 mph - N/A   Clear
8:53 AM 39.0 °F 29.3 °F 24.1 °F 55% 29.66 in 10.0 mi SW 19.6 mph - N/A   Clear
9:53 AM 46.0 °F 38.0 °F 21.0 °F 37% 29.65 in 10.0 mi WSW 21.9 mph 29.9 mph N/A   Clear
10:53 AM 46.9 °F - 15.1 °F 28% 29.66 in 10.0 mi West 18.4 mph 27.6 mph N/A   Overcast
11:33 AM 46.4 °F 39.5 °F 26.6 °F 46% 29.69 in 10.0 mi NW 17.3 mph 26.5 mph N/A   Mostly Cloudy
11:53 AM 48.0 °F - 27.0 °F 44% 29.67 in 10.0 mi NW 23.0 mph 32.2 mph N/A   Partly Cloudy
12:53 PM 39.9 °F 27.5 °F 30.0 °F 68% 29.74 in 10.0 mi NW 35.7 mph 50.6 mph N/A   Mostly Cloudy
1:02 PM 35.6 °F 22.1 °F 30.2 °F 81% 29.77 in 2.5 mi NW 32.2 mph 47.2 mph 0.00 in Snow Light Snow
1:06 PM 35.6 °F 23.0 °F 30.2 °F 81% 29.78 in 1.5 mi NW 27.6 mph 47.2 mph 0.00 in Snow Light Snow
1:34 PM 33.8 °F 21.9 °F 30.2 °F 87% 29.80 in 2.0 mi NW 21.9 mph 32.2 mph 0.00 in Snow Light Snow
1:43 PM 35.6 °F 24.0 °F 32.0 °F 87% 29.80 in 5.0 mi NW 23.0 mph 31.1 mph 0.00 in Snow Light Snow
1:53 PM 37.0 °F 25.1 °F 30.9 °F 79% 29.79 in 9.0 mi NW 26.5 mph 35.7 mph 0.00 in   Overcast
2:25 PM 39.2 °F 27.4 °F 30.2 °F 70% 29.81 in 10.0 mi NW 29.9 mph 40.3 mph N/A   Mostly Cloudy
2:53 PM 41.0 °F 29.1 °F 28.0 °F 60% 29.81 in 10.0 mi NW 34.5 mph 44.9 mph N/A   Mostly Cloudy
3:45 PM 42.8 °F 31.4 °F 24.8 °F 49% 29.85 in 10.0 mi NW 35.7 mph 46.0 mph N/A   Mostly Cloudy
3:53 PM 44.1 °F 33.5 °F 24.1 °F 45% 29.84 in 10.0 mi NNW 33.4 mph 43.7 mph N/A   Mostly Cloudy
4:01 PM 44.6 °F 34.1 °F 24.8 °F 46% 29.86 in 10.0 mi NW 34.5 mph 46.0 mph N/A   Scattered Clouds
4:53 PM 44.1 °F 34.6 °F 17.1 °F 34% 29.87 in 10.0 mi NW 26.5 mph 38.0 mph N/A   Scattered Clouds
5:53 PM 44.1 °F 35.2 °F 15.1 °F 31% 29.90 in 10.0 mi NW 23.0 mph 28.8 mph N/A   Partly Cloudy
6:53 PM 37.9 °F 32.1 °F 16.0 °F 41% 29.93 in 10.0 mi WNW 8.1 mph - N/A   Clear
7:53 PM 33.1 °F 24.9 °F 16.0 °F 50% 29.97 in 10.0 mi West 10.4 mph - N/A   Clear
8:53 PM 34.0 °F 26.6 °F 18.0 °F 52% 29.97 in 10.0 mi WNW 9.2 mph - N/A   Clear
9:53 PM 34.0 °F 27.2 °F 18.0 °F 52% 29.99 in 10.0 mi West 8.1 mph - N/A   Clear
10:53 PM 26.1 °F 20.5 °F 16.0 °F 66% 30.01 in 10.0 mi SSW 4.6 mph - N/A   Clear
11:53 PM 26.1 °F 18.4 °F 16.0 °F 66% 30.02 in 10.0 mi WSW 6.9 mph - N/A   Clear